Voltar ao catálogo

STARLINK-37140

AtivoComunicaçõesSSO
NORAD 68311·PAYLOAD·🇺🇸 United States

Lançado Mar 20, 2026 de Vandenberg Space Force Base

Loading…

Próximas Passagens (próximas 24 horas)

TLE

AtualizadoSource: CelesTrak SupGP

Época: Sep 14, 2026, 23:05 UTC

1 68311C 26057T   26257.96229167 -.00035448  00000+0 -10999-2 0  2575
2 68311  97.2860  23.4162 0000934  97.5659 247.6722 15.33470653    16

Acompanhe STARLINK-37140 em tempo real com AllMySat

Download on the App Store